Home   Weather   Mattersburg   Past weeks

Flag for Austria Past Weather in Mattersburg, Burgenland, Austria — Yesterday and Last 2 Weeks

Now
25 °F

Chilly.


Feels Like: 19 °F
Forecast: 11 / 28 °F
Wind: 5 mph from North

Location: Eisenstadt

Current Time: Jan 19, 2017 at 6:27:16 pm

Latest Report: Jan 19, 2017 at 5:00 pm


Visibility: N/A

Pressure: 30.65 "Hg

Humidity: 69%

Dew Point: 16 °F

Location of MattersburgLocation

Past Weather in Mattersburg — Graph

°F

Mattersburg Temperature Yesterday

Maximum temperature yesterday: 29 °F (at 11:00 am)
Minimum temperature yesterday: 24 °F (at 11:00 pm)
Average temperature yesterday: 27 °F

High & Low Weather Summary for the Past Weeks

 TemperatureHumidityPressure
High44 °F (Jan 12, 2:00 pm)94% (Jan 13, 10:00 am)30.70 "Hg (Jan 13, 10:00 am)
Low7 °F (Jan 11, 5:00 am)39% (Jan 7, 3:00 pm)29.44 "Hg (Jan 13, 6:00 am)
Average27 °F68%30.19 "Hg
* Reported Jan 4 5:00 pm — Jan 19 5:00 pm, Mattersburg, Weather by CustomWeather, © 2017

Note: Actual official high and low records may vary slightly from our data, if they occured in-between our weather recording intervals... More about our weather records

Advertising

Mattersburg Weather History for the Previous 24 Hours

Scroll right to see more
 ConditionsComfort  
Time TempWeatherWind HumidityBarometerVisibility
5:00 pm
Thu, Jan 19
25 °FChilly.5 mph69%30.65 "HgN/A
4:00 pm27 °FSunny.3 mph65%30.65 "Hg6 mi
3:00 pm28 °FChilly.3 mph63%30.65 "HgN/A
2:00 pm27 °FChilly.5 mph64%30.66 "HgN/A
1:00 pm27 °FSunny.2 mph65%30.66 "Hg6 mi
12:00 pm25 °FCold.3 mph70%30.68 "HgN/A
11:00 am23 °FCold.5 mph74%30.70 "HgN/A
10:00 am21 °FSunny.5 mph76%30.70 "Hg6 mi
9:00 am20 °FCold.6 mph78%30.69 "HgN/A
8:00 am19 °FCold.6 mph78%30.67 "HgN/A
7:00 am19 °FClear.5 mph78%30.66 "Hg6 mi
6:00 am20 °FClear.5 mph78%30.66 "Hg6 mi
5:00 am20 °FClear.5 mph78%30.67 "Hg6 mi
4:00 am20 °FClear.6 mph79%30.66 "Hg6 mi
3:00 am20 °FCold.6 mph78%30.65 "HgN/A
2:00 am21 °FCold.6 mph79%30.66 "HgN/A
1:00 am21 °FClear.7 mph78%30.65 "Hg6 mi
12:00 am22 °FCold.7 mph77%30.64 "HgN/A
11:00 pm
Wed, Jan 18
24 °FCold.6 mph76%30.63 "HgN/A
10:00 pm25 °FCold.6 mph74%30.64 "HgN/A
9:00 pm26 °FChilly.5 mph72%30.64 "HgN/A
8:00 pm26 °FChilly.5 mph69%30.64 "HgN/A
7:00 pm26 °FChilly.3 mph68%30.64 "HgN/A
6:00 pm27 °FChilly.3 mph67%30.62 "HgN/A
Weather by CustomWeather, © 2017

See weather overviewHow to use our weather pages